Location: Poughquag
(41.6090°N, 73.6820°W)
Time: 20:22:03
(UTC-04:00)

CUBESAT XI-V - Pass Details

Date: 16 April 2024
Orbit: 657 x 680 km, 98.2° (Epoch: 23 May)

Event Time Altitude Azimuth Distance (km) Brightness Sun altitude
Exits shadow 02:33:45 31° 17° (NNE) 1,192 ? -33.3°
Drops below altitude 10° 02:36:22 10° 358° (N) 2,125 ? -33.0°
Sets 02:38:40 0° 353° (N) 3,041 ? -32.8°
